Flag for Mexico Weather past 2 weeks in Playa del Carmen, Quintana Roo, Mexico

Now
81 °F

Scattered clouds.


Feels Like: 85 °F
Forecast: N/A
Wind: 17 mph from Southeast

Location: Cozumel Civ / Mil

Current Time: Mar 4, 2015 at 3:54:17 PM

Latest Report: Mar 4, 2015 at 2:40 PM


Visibility: 8 mi

Pressure: 29.96 "Hg

Humidity: 74%

Dew point: 72 °F

Location of Playa del CarmenLocation

Historic Weather in Playa del Carmen — Graph

°F

Playa del Carmen temperature yesterday

Maximum temperature yesterday: 82 °F (at 1:40 PM)
Minimum temperature yesterday: 66 °F (at 7:44 AM)
Average temperature yesterday: 73 °F

Past Weeks' High & Low Weather Summary

 TemperatureHumidityPressure
High84 °F (Feb 24, 12:53 PM)100% (Feb 17, 7:43 PM)30.26 "Hg (Feb 17, 7:43 PM)
Low57 °F (Feb 20, 10:42 PM)57% (Feb 19, 2:40 PM)29.80 "Hg (Feb 26, 4:50 AM)
Average72 °F86%30.05 "Hg
* Reported Feb 17 1:44 PM — Mar 4 1:41 PM, Playa del Carmen, Weather by CustomWeather, © 2015

Note: Actual official high and low records may vary slightly from our data, if they occured in-between our weather recording intervals... More about our weather records

Advertising

Playa del Carmen weather history for previous 24 hours

 ConditionsComfort  
Time TempWeatherWind HumidityBarometerVisibility
1:41 PM
Wed, Mar 4
81 °FScattered clouds.16 mph70%29.98 "Hg8 mi
12:43 PM81 °FPartly sunny.18 mph74%29.98 "Hg8 mi
11:45 AM81 °FScattered clouds.17 mph70%30.03 "Hg8 mi
10:48 AM79 °FScattered clouds.12 mph79%30.04 "Hg7 mi
9:44 AM75 °FPartly sunny.12 mph89%30.06 "Hg7 mi
8:54 AM73 °FScattered clouds.8 mph94%30.01 "Hg7 mi
7:42 AM68 °FScattered clouds.5 mph100%29.99 "Hg7 mi
6:55 AM66 °FPassing clouds.No wind100%29.97 "Hg8 mi
5:41 AM66 °FPassing clouds.No wind100%29.96 "Hg7 mi
4:55 AM68 °FClear.3 mph100%29.95 "Hg7 mi
3:40 AM68 °FPassing clouds.6 mph100%29.97 "Hg7 mi
2:41 AM70 °FPassing clouds.5 mph100%29.97 "Hg7 mi
1:51 AM70 °FPassing clouds.6 mph100%29.98 "Hg7 mi
12:52 AM70 °FPassing clouds.6 mph100%29.98 "Hg7 mi
11:52 PM
Tue, Mar 3
72 °FPassing clouds.10 mph100%30.02 "Hg7 mi
10:50 PM68 °FPassing clouds.6 mph100%30.02 "Hg7 mi
9:42 PM70 °FPassing clouds.No wind100%30.04 "Hg7 mi
8:49 PM70 °FPassing clouds.No wind100%30.01 "Hg7 mi
7:50 PM72 °FPassing clouds.No wind94%29.99 "Hg7 mi
6:42 PM75 °FScattered clouds.5 mph89%29.95 "Hg7 mi
5:40 PM77 °FScattered clouds.7 mph79%29.98 "Hg8 mi
4:40 PM79 °FScattered clouds.12 mph74%29.98 "Hg8 mi
3:40 PM79 °FScattered clouds.13 mph74%30.01 "Hg8 mi
Weather by CustomWeather, © 2015

See weather overviewHow to use our weather pages